GW0819 Weather Reports


time (UTC)temp
C
wind
direction
speed
KPH
gust
KPH
rain 1hr
cm
rain 24hr
cm
rain mn
cm
humidity
%
barometer
mb
20260505214038 21 227 16.1 17.7 0.00 0.00 0.00 33 1004.6
20260505213536 22 234 14.5 16.1 0.00 0.00 0.00 32 1004.6
20260505213032 21 245 17.7 27.4 0.00 0.00 0.00 33 1004.7
20260505212528 22 255 22.5 25.7 0.00 0.00 0.00 33 1005.0
20260505212026 21 240 22.5 30.6 0.00 0.00 0.00 33 1004.8
20260505211523 21 268 16.1 19.3 0.00 0.00 0.00 34 1004.8
20260505211019 21 248 14.5 24.1 0.00 0.00 0.00 33 1005.3
20260505210516 21 214 19.3 19.3 0.00 0.00 0.00 33 1005.3
20260505210014 21 186 8.0 27.4 0.00 0.00 0.00 34 1005.0
20260505205512 21 239 6.4 20.9 0.00 0.00 0.00 35 1005.3
20260505205008 21 271 9.7 16.1 0.00 0.00 0.00 35 1006.0
20260505204506 21 269 11.3 19.3 0.00 0.00 0.00 34 1005.7
20260505204003 20 206 4.8 25.7 0.00 0.00 0.00 35 1006.1
20260505203459 21 259 24.1 25.7 0.00 0.00 0.00 35 1006.0
20260505202956 21 275 17.7 20.9 0.00 0.00 0.00 35 1006.2
20260505202453 20 254 33.8 37.0 0.00 0.00 0.00 36 1006.3
20260505201948 20 267 37.0 45.1 0.00 0.00 0.00 35 1006.3
20260505201446 20 254 38.6 61.2 0.00 0.00 0.00 37 1006.3
20260505200943 21 256 40.2 46.7 0.00 0.00 0.00 34 1006.5
20260505200441 21 256 30.6 32.2 0.00 0.00 0.00 32 1006.4
20260505195936 20 242 19.3 20.9 0.00 0.00 0.00 32 1006.2
20260505195434 20 236 16.1 25.7 0.00 0.00 0.00 32 1006.4
20260505194931 21 255 11.3 22.5 0.00 0.00 0.00 30 1006.3
20260505194428 21 220 19.3 19.3 0.00 0.00 0.00 31 1006.3
20260505193928 21 326 9.7 11.3 0.00 0.00 0.00 31 1006.4
20260505193426 20 31 3.2 11.3 0.00 0.00 0.00 32 1006.2
20260505192924 20 232 0.0 11.3 0.00 0.00 0.00 32 1006.5
20260505192422 21 117 11.3 12.9 0.00 0.00 0.00 31 1006.4
20260505191919 20 25 6.4 9.7 0.00 0.00 0.00 31 1006.4
20260505191418 20 78 14.5 16.1 0.00 0.00 0.00 32 1006.9
20260505190914 20 99 17.7 22.5 0.00 0.00 0.00 32 1006.7
20260505190409 20 96 17.7 17.7 0.00 0.00 0.00 32 1006.7
20260505185905 20 118 17.7 22.5 0.00 0.00 0.00 32 1006.6
20260505185402 20 326 8.0 17.7 0.00 0.00 0.00 32 1006.9
20260505184858 21 80 19.3 37.0 0.00 0.00 0.00 32 1006.6
20260505184355 20 284 4.8 16.1 0.00 0.00 0.00 32 1007.1
20260505183852 19 22 12.9 24.1 0.00 0.00 0.00 34 1007.0
20260505183349 20 69 19.3 24.1 0.00 0.00 0.00 33 1007.0
20260505182846 18 72 6.4 17.7 0.00 0.00 0.00 35 1007.2
20260505182343 19 117 22.5 24.1 0.00 0.00 0.00 34 1007.0
20260505181839 18 118 20.9 22.5 0.00 0.00 0.00 34 1007.2
20260505181336 18 50 6.4 12.9 0.00 0.00 0.00 34 1007.4
20260505180833 18 43 17.7 20.9 0.00 0.00 0.00 35 1007.3
20260505180330 19 25 9.7 14.5 0.00 0.00 0.00 34 1007.5
20260505175826 18 70 11.3 14.5 0.00 0.00 0.00 36 1007.7
20260505175323 18 21 8.0 14.5 0.00 0.00 0.00 36 1007.3
20260505174819 18 27 12.9 16.1 0.00 0.00 0.00 35 1007.5
20260505174317 17 80 16.1 17.7 0.00 0.00 0.00 37 1007.7
20260505173812 17 11 14.5 14.5 0.00 0.00 0.00 37 1007.8
20260505173309 17 56 11.3 11.3 0.00 0.00 0.00 38 1007.8
20260505172806 17 344 8.0 17.7 0.00 0.00 0.00 38 1007.7
20260505172306 17 11 8.0 20.9 0.00 0.00 0.00 37 1007.8
20260505171758 17 64 8.0 24.1 0.00 0.00 0.00 38 1007.7
20260505171255 17 306 11.3 20.9 0.00 0.00 0.00 38 1007.7
20260505170752 17 8 22.5 24.1 0.00 0.00 0.00 38 1007.9
20260505170249 17 9 14.5 20.9 0.00 0.00 0.00 38 1007.8
20260505165744 17 54 8.0 17.7 0.00 0.00 0.00 38 1007.5
20260505165240 17 334 12.9 16.1 0.00 0.00 0.00 39 1007.7
20260505164736 17 358 14.5 20.9 0.00 0.00 0.00 39 1007.5
20260505164233 16 276 3.2 20.9 0.00 0.00 0.00 40 1007.5
20260505163731 17 7 17.7 25.7 0.00 0.00 0.00 38 1007.8
20260505163230 16 352 12.9 19.3 0.00 0.00 0.00 40 1007.8
20260505162726 17 20 8.0 17.7 0.00 0.00 0.00 40 1007.7
20260505162223 16 28 9.7 17.7 0.00 0.00 0.00 41 1007.9
20260505161720 16 15 8.0 17.7 0.00 0.00 0.00 41 1008.0
20260505161218 15 59 24.1 24.1 0.00 0.00 0.00 44 1007.9
20260505160715 15 7 17.7 22.5 0.00 0.00 0.00 43 1008.0
20260505160213 16 36 11.3 17.7 0.00 0.00 0.00 44 1007.8
20260505153152 15 50 19.3 20.9 0.00 0.00 0.00 46 1007.7
20260505152649 14 69 16.1 27.4 0.00 0.00 0.00 48 1008.0
20260505152144 14 70 11.3 17.7 0.00 0.00 0.00 48 1007.9
20260505151640 13 22 17.7 22.5 0.00 0.00 0.00 49 1008.1
20260505151138 14 358 19.3 27.4 0.00 0.00 0.00 49 1008.1
20260505150633 13 54 17.7 24.1 0.00 0.00 0.00 49 1007.9
20260505150131 13 14 17.7 24.1 0.00 0.00 0.00 49 1007.7
20260505140559 12 2 22.5 30.6 0.00 0.00 0.00 56 1007.0
20260505125013 13 37 8.0 24.1 0.00 0.00 0.00 55 1006.2
20260505124509 13 26 19.3 22.5 0.00 0.00 0.00 54 1006.2
20260505124006 13 0 17.7 25.7 0.00 0.00 0.00 54 1006.0
20260505123502 13 10 20.9 29.0 0.00 0.00 0.00 53 1005.6
20260505122958 13 2 22.5 27.4 0.00 0.00 0.00 52 1005.6
20260505122455 14 26 14.5 24.1 0.00 0.00 0.00 51 1005.6
20260505121952 14 32 14.5 27.4 0.00 0.00 0.00 49 1005.6
20260505121449 15 27 17.7 25.7 0.00 0.00 0.00 47 1005.7
20260505120945 15 19 17.7 29.0 0.00 0.00 0.00 46 1005.2
20260505120442 15 20 17.7 24.1 0.00 0.00 0.00 43 1005.2
20260505115941 15 10 20.9 25.7 0.00 0.00 0.00 41 1005.5
20260505115438 16 326 17.7 27.4 0.00 0.00 0.00 39 1005.0
20260505114936 17 299 27.4 29.0 0.00 0.00 0.00 32 1004.6
20260505114431 17 285 32.2 35.4 0.00 0.00 0.00 32 1004.5
20260505113928 18 289 24.1 40.2 0.00 0.00 0.00 31 1004.6
20260505113425 17 296 35.4 38.6 0.00 0.00 0.00 31 1004.8
20260505112920 18 262 25.7 40.2 0.00 0.00 0.00 31 1004.5
20260505112418 17 335 19.3 29.0 0.00 0.00 0.00 32 1005.0
20260505111914 17 266 22.5 30.6 0.00 0.00 0.00 32 1004.1
20260505111409 17 258 29.0 37.0 0.00 0.00 0.00 32 1004.0
20260505110906 17 258 33.8 40.2 0.00 0.00 0.00 32 1003.9
20260505110403 17 258 25.7 40.2 0.00 0.00 0.00 32 1004.5
20260505101833 16 257 29.0 29.0 0.00 0.00 0.00 32 1004.0
20260505101328 16 252 24.1 35.4 0.00 0.00 0.00 33 1004.3
20260505100824 16 243 30.6 33.8 0.00 0.00 0.00 33 1004.5
20260505100321 17 255 33.8 41.8 0.00 0.00 0.00 31 1004.4
20260505095817 17 259 27.4 46.7 0.00 0.00 0.00 31 1004.5
20260505095315 16 248 27.4 40.2 0.00 0.00 0.00 33 1004.5
20260505094810 17 251 30.6 37.0 0.00 0.00 0.00 31 1004.3
20260505094307 17 250 25.7 35.4 0.00 0.00 0.00 31 1004.3
20260505093803 17 263 27.4 33.8 0.00 0.00 0.00 31 1004.5
20260505093301 17 257 29.0 35.4 0.00 0.00 0.00 30 1004.4
20260505092757 17 262 22.5 35.4 0.00 0.00 0.00 30 1004.4
20260505092256 17 259 25.7 35.4 0.00 0.00 0.00 30 1004.0
20260505091753 17 263 20.9 29.0 0.00 0.00 0.00 30 1004.4
20260505091250 17 263 25.7 29.0 0.00 0.00 0.00 29 1004.1
20260505090748 18 280 22.5 29.0 0.00 0.00 0.00 29 1003.9
20260505090246 18 272 24.1 30.6 0.00 0.00 0.00 29 1003.8
20260505085743 17 266 14.5 29.0 0.00 0.00 0.00 29 1004.0
20260505085241 17 273 19.3 27.4 0.00 0.00 0.00 29 1004.1
20260505084738 17 265 17.7 24.1 0.00 0.00 0.00 28 1004.3
20260505084238 18 253 19.3 27.4 0.00 0.00 0.00 28 1004.0
20260505083734 18 259 19.3 27.4 0.00 0.00 0.00 27 1004.0
20260505083230 18 260 22.5 30.6 0.00 0.00 0.00 27 1003.8
20260505082726 18 255 20.9 29.0 0.00 0.00 0.00 27 1004.1
20260505082224 18 256 20.9 29.0 0.00 0.00 0.00 27 1003.8
20260505081719 18 263 22.5 29.0 0.00 0.00 0.00 27 1004.0
20260505081217 18 253 20.9 27.4 0.00 0.00 0.00 27 1003.9
20260505080714 18 256 19.3 33.8 0.00 0.00 0.00 26 1003.6
20260505080210 18 271 20.9 29.0 0.00 0.00 0.00 27 1003.7
20260505075706 18 265 20.9 25.7 0.00 0.00 0.00 27 1003.8
20260505075203 18 256 25.7 29.0 0.00 0.00 0.00 27 1003.7
20260505074700 18 257 17.7 30.6 0.00 0.00 0.00 28 1003.6
20260505074157 18 266 17.7 27.4 0.00 0.00 0.00 28 1003.7
20260505073654 17 262 22.5 27.4 0.00 0.00 0.00 29 1004.0
20260505073153 17 261 19.3 29.0 0.00 0.00 0.00 29 1004.1
20260505072648 17 252 25.7 27.4 0.00 0.00 0.00 30 1003.9
20260505072145 17 248 20.9 25.7 0.00 0.00 0.00 30 1004.0
20260505071640 17 250 20.9 24.1 0.00 0.00 0.00 30 1003.9
20260505071138 17 247 24.1 25.7 0.00 0.00 0.00 30 1004.0
20260505070635 16 243 17.7 20.9 0.00 0.00 0.00 32 1004.0
20260505070132 16 246 14.5 16.1 0.00 0.00 0.00 31 1003.9
20260505065627 16 247 12.9 16.1 0.00 0.00 0.00 32 1003.8
20260505065124 17 255 12.9 14.5 0.00 0.00 0.00 31 1003.9
20260505064621 17 244 11.3 16.1 0.00 0.00 0.00 31 1003.9
20260505064120 17 250 11.3 14.5 0.00 0.00 0.00 30 1003.8
20260505063617 17 249 12.9 19.3 0.00 0.00 0.00 30 1004.0
20260505063112 18 251 14.5 22.5 0.00 0.00 0.00 28 1003.9
20260505062609 18 240 16.1 19.3 0.00 0.00 0.00 28 1003.8
20260505062106 18 240 16.1 22.5 0.00 0.00 0.00 27 1003.9
20260505061603 18 236 14.5 20.9 0.00 0.00 0.00 28 1003.9
20260505061102 18 239 16.1 20.9 0.00 0.00 0.00 28 1003.8
20260505060559 18 244 16.1 19.3 0.00 0.00 0.00 29 1003.9
20260505060055 18 248 17.7 20.9 0.00 0.00 0.00 29 1003.9
20260505055551 18 247 17.7 22.5 0.00 0.00 0.00 28 1004.0
20260505055048 18 243 20.9 24.1 0.00 0.00 0.00 27 1003.7
20260505054545 19 231 17.7 22.5 0.00 0.00 0.00 27 1004.0
20260505054043 19 230 17.7 22.5 0.00 0.00 0.00 26 1003.9
20260505053540 20 230 16.1 22.5 0.00 0.00 0.00 26 1003.9
20260505053036 20 226 14.5 24.1 0.00 0.00 0.00 25 1004.0
20260505052533 20 225 17.7 22.5 0.00 0.00 0.00 25 1004.1
20260505052031 20 234 17.7 19.3 0.00 0.00 0.00 25 1003.9
20260505051527 20 230 14.5 19.3 0.00 0.00 0.00 25 1004.3
20260505051026 20 228 14.5 20.9 0.00 0.00 0.00 24 1004.4
20260505050524 20 231 14.5 17.7 0.00 0.00 0.00 25 1003.9
20260505041451 21 246 22.5 32.2 0.00 0.00 0.00 24 1004.3
20260505040948 21 246 27.4 35.4 0.00 0.00 0.00 24 1004.3
20260505040446 21 249 20.9 30.6 0.00 0.00 0.00 24 1004.1
20260505035943 21 245 17.7 29.0 0.00 0.00 0.00 23 1004.3
20260505035439 21 247 20.9 30.6 0.00 0.00 0.00 24 1004.1
20260505034936 21 258 17.7 24.1 0.00 0.00 0.00 24 1004.1
20260505034432 21 245 17.7 25.7 0.00 0.00 0.00 23 1004.3
20260505033930 21 251 17.7 29.0 0.00 0.00 0.00 23 1004.1
20260505033426 21 245 25.7 30.6 0.00 0.00 0.00 23 1003.9
20260505032924 21 244 27.4 30.6 0.00 0.00 0.00 22 1004.1
20260505032421 22 238 24.1 30.6 0.00 0.00 0.00 22 1004.0
20260505031918 22 237 29.0 35.4 0.00 0.00 0.00 22 1004.1
20260505031415 21 237 22.5 30.6 0.00 0.00 0.00 22 1003.9
20260505030912 21 233 24.1 29.0 0.00 0.00 0.00 23 1004.1
20260505030408 21 225 22.5 27.4 0.00 0.00 0.00 23 1004.0
20260505025903 21 231 20.9 27.4 0.00 0.00 0.00 23 1003.8
20260505025401 21 234 19.3 25.7 0.00 0.00 0.00 24 1003.9
20260505024900 21 225 16.1 20.9 0.00 0.00 0.00 24 1004.0
20260505024357 21 227 17.7 25.7 0.00 0.00 0.00 24 1003.8
20260505023853 21 236 14.5 17.7 0.00 0.00 0.00 24 1003.6
20260505023351 21 240 16.1 19.3 0.00 0.00 0.00 24 1003.8
20260505022848 21 233 11.3 17.7 0.00 0.00 0.00 24 1003.6
20260505022345 21 231 12.9 16.1 0.00 0.00 0.00 24 1003.7
20260505021842 21 237 17.7 20.9 0.00 0.00 0.00 24 1003.7
20260505021338 21 230 17.7 19.3 0.00 0.00 0.00 24 1003.5
20260505020834 22 229 20.9 25.7 0.00 0.00 0.00 23 1003.6
20260505020330 22 235 14.5 24.1 0.00 0.00 0.00 24 1003.3
20260505015827 22 235 17.7 24.1 0.00 0.00 0.00 23 1003.5
20260505015324 22 235 22.5 32.2 0.00 0.00 0.00 23 1003.3
20260505014821 22 238 24.1 29.0 0.00 0.00 0.00 23 1003.1
20260505014318 22 234 27.4 30.6 0.00 0.00 0.00 23 1003.1
20260505013815 22 234 29.0 32.2 0.00 0.00 0.00 23 1003.2
20260505013312 23 246 20.9 32.2 0.00 0.00 0.00 23 1003.1
20260505012811 23 241 27.4 37.0 0.00 0.00 0.00 22 1003.1
20260505012308 23 238 27.4 38.6 0.00 0.00 0.00 22 1003.2
20260505011803 23 238 27.4 37.0 0.00 0.00 0.00 22 1003.1
20260505011301 23 235 32.2 38.6 0.00 0.00 0.00 22 1003.3
20260505010756 23 241 35.4 40.2 0.00 0.00 0.00 21 1003.5
20260505010253 23 243 25.7 33.8 0.00 0.00 0.00 22 1003.5
20260505005749 23 240 33.8 43.5 0.00 0.00 0.00 21 1003.6
20260505005246 23 242 35.4 43.5 0.00 0.00 0.00 21 1003.3
20260505004743 24 231 35.4 41.8 0.00 0.00 0.00 21 1003.5
20260505004239 24 240 38.6 45.1 0.00 0.00 0.00 21 1003.5
20260505003737 24 243 32.2 43.5 0.00 0.00 0.00 21 1003.3
20260505003234 24 239 35.4 48.3 0.00 0.00 0.00 21 1003.7
20260505002730 24 240 53.1 56.3 0.00 0.00 0.00 21 1003.6
20260505002228 25 238 43.5 51.5 0.00 0.00 0.00 21 1003.2
20260505001725 25 236 40.2 53.1 0.00 0.00 0.00 20 1003.7
20260505001223 25 251 38.6 56.3 0.00 0.00 0.00 20 1003.9
20260505000720 25 251 35.4 46.7 0.00 0.00 0.00 15 1003.7
20260505000218 25 251 32.2 48.3 0.00 0.00 0.00 14 1003.6
20260504235714 25 266 29.0 46.7 0.00 0.00 0.00 14 1003.6
20260504235210 25 255 43.5 51.5 0.00 0.00 0.00 13 1003.8
20260504234708 25 256 35.4 54.7 0.00 0.00 0.00 13 1003.8
20260504234204 25 266 29.0 46.7 0.00 0.00 0.00 13 1003.9
20260504233700 25 265 33.8 43.5 0.00 0.00 0.00 13 1003.9
20260504233156 25 247 43.5 57.9 0.00 0.00 0.00 13 1003.8
20260504232654 25 250 45.1 56.3 0.00 0.00 0.00 13 1003.9
20260504232151 25 260 43.5 51.5 0.00 0.00 0.00 13 1003.9
20260504231648 25 254 41.8 51.5 0.00 0.00 0.00 13 1004.1
20260504231144 25 241 51.5 61.2 0.00 0.00 0.00 13 1004.0
20260504230640 25 247 41.8 46.7 0.00 0.00 0.00 13 1003.8
20260504230139 25 254 33.8 49.9 0.00 0.00 0.00 13 1003.8
20260504225637 25 251 43.5 48.3 0.00 0.00 0.00 12 1003.7
20260504225133 25 258 46.7 56.3 0.00 0.00 0.00 12 1003.9
20260504224630 26 250 57.9 61.2 0.00 0.00 0.00 11 1004.0
20260504224126 26 262 33.8 48.3 0.00 0.00 0.00 13 1003.9
20260504223624 26 266 33.8 64.4 0.00 0.00 0.00 13 1004.0
20260504223119 26 263 32.2 49.9 0.00 0.00 0.00 13 1003.8
20260504222617 26 251 37.0 43.5 0.00 0.00 0.00 13 1004.0
20260504222114 26 255 25.7 40.2 0.00 0.00 0.00 13 1004.0
20260504221611 26 273 27.4 38.6 0.00 0.00 0.00 13 1004.4
20260504221108 26 260 29.0 48.3 0.00 0.00 0.00 13 1003.9
20260504220604 26 248 40.2 54.7 0.00 0.00 0.00 12 1004.3
20260504215558 26 264 32.2 40.2 0.00 0.00 0.00 14 1004.0
20260504215055 26 250 41.8 49.9 0.00 0.00 0.00 13 1004.0
20260504214551 26 268 35.4 41.8 0.00 0.00 0.00 14 1003.9